Weather History for KCNU - October, 2012

Change the Weather History Date:

Saturday, October 13, 2012

  Actual Average Record
Temperature  
Mean Temperature 68 °F 59 °F  
Max Temperature 73 °F 70 °F 87 °F (1962)
Min Temperature 62 °F 48 °F 26 °F (1917)
Degree Days  
Heating Degree Days 0 7  
Month to date heating degree days 128 72  
Since 1 July heating degree days 150 119  
Cooling Degree Days 3 1  
Month to date cooling degree days 6 21  
Year to date cooling degree days 1965 1518  
Growing Degree Days 18 (Base 50)    
Moisture  
Dew Point 64 °F    
Average Humidity 91    
Maximum Humidity 100    
Minimum Humidity 81    
Precipitation  
Precipitation 0.74 in 0.13 in 2.61 in (2014)
Month to date precipitation 2.06 1.78  
Year to date precipitation 30.23 35.94  
Sea Level Pressure  
Sea Level Pressure 29.84 in    
Wind  
Wind Speed 14 mph (South)    
Max Wind Speed 26 mph    
Max Gust Speed 78 mph    
Visibility 6 miles    
Events Rain , Thunderstorm    
T = Trace of Precipitation, MM = Missing Value Source: NWS Daily Summary

Daily Weather History Graph

Daily Weather History Graph

Search for Another Location

Airport or City:

Trip Planner

Search our weather history database for the weather conditions in past years. The results will help you decide how hot, cold, wet, or windy it might be!

Date:

Astronomy

Oct. 13, 2012 Rise Set
Actual Time 7:28 AM CDT 6:46 PM CDT
Civil Twilight 7:02 AM CDT 7:12 PM CDT
Nautical Twilight 6:32 AM CDT 7:43 PM CDT
Astronomical Twilight 6:01 AM CDT 8:13 PM CDT
Moon 5:21 AM CDT (10/13) 5:29 PM CDT (10/13)
Length of Visible Light 12h 10m
Length of Day
11h 17m
Waning Crescent, 5% of the Moon is Illuminated
Oct 13
Waning Crescent
Oct 15
New
Oct 21
First Quarter
Oct 29
Full
Nov 6
Last Quarter

Hourly Weather History & Observations

Time (CDT) Temp. Dew Point Humidity Pressure Visibility Wind Dir Wind Speed Gust Speed Precip Events Conditions
12:52 AM 62.6 °F 60.8 °F 94% 30.04 in 9.0 mi SE 9.2 mph - N/A   Overcast
1:02 AM 62.6 °F 60.8 °F 94% 30.04 in 9.0 mi SE 8.1 mph - N/A   Overcast
1:52 AM 62.6 °F 60.8 °F 94% 30.03 in 8.0 mi North - - N/A   Overcast
2:17 AM 62.6 °F 60.8 °F 94% 30.02 in 7.0 mi SSE 6.9 mph - N/A   Overcast
2:24 AM 62.6 °F 60.8 °F 94% 30.02 in 7.0 mi SE 6.9 mph - N/A   Overcast
2:52 AM 63.0 °F 62.1 °F 97% 29.99 in 8.0 mi SSE 10.4 mph - N/A   Overcast
3:52 AM 64.4 °F 62.6 °F 94% 29.98 in 6.0 mi SSE 10.4 mph - N/A   Overcast
4:52 AM 64.4 °F 62.6 °F 94% 29.98 in 5.0 mi North - - N/A   Overcast
5:37 AM 64.4 °F 62.6 °F 94% 29.97 in 5.0 mi South 12.7 mph - N/A   Mostly Cloudy
5:52 AM 64.0 °F 62.1 °F 93% 29.94 in 5.0 mi South 11.5 mph - N/A   Scattered Clouds
6:52 AM 66.0 °F 63.0 °F 90% 29.93 in 7.0 mi South 15.0 mph - N/A   Clear
7:52 AM 66.0 °F 63.0 °F 90% 29.94 in 6.0 mi South 12.7 mph - N/A   Clear
9:30 AM 68.0 °F 64.4 °F 88% 29.94 in 7.0 mi South 12.7 mph - N/A   Overcast
9:48 AM 68.0 °F 64.4 °F 88% 29.94 in 7.0 mi South 15.0 mph - N/A   Overcast
9:52 AM 68.0 °F 64.0 °F 87% 29.92 in 7.0 mi South 13.8 mph 23.0 mph N/A Thunderstorm Overcast
10:27 AM 68.0 °F 64.4 °F 88% 29.94 in 7.0 mi West 5.8 mph - 0.00 in Rain , Thunderstorm Light Rain
10:41 AM 66.2 °F 64.4 °F 94% 29.93 in 1.8 mi Calm Calm - N/A Rain , Thunderstorm Heavy Thunderstorms and Rain
10:52 AM 66.9 °F 64.0 °F 90% 29.91 in 1.8 mi SSE 5.8 mph - 0.09 in Rain , Thunderstorm Thunderstorms and Rain
10:59 AM 66.2 °F 64.4 °F 94% 29.92 in 2.0 mi South 10.4 mph - 0.03 in Rain , Thunderstorm Heavy Rain
11:13 AM 66.2 °F 64.4 °F 94% 29.90 in 2.5 mi SSE 6.9 mph - N/A Rain , Thunderstorm Light Rain
11:18 AM 66.2 °F 64.4 °F 94% 29.89 in 4.0 mi South 6.9 mph - 0.06 in Rain Light Rain
11:35 AM 66.2 °F 64.4 °F 94% 29.90 in 3.0 mi SSW 4.6 mph - 0.07 in Rain , Thunderstorm Light Rain
11:52 AM 66.9 °F 64.9 °F 93% 29.88 in 4.0 mi South 6.9 mph - 0.07 in Rain , Thunderstorm Light Rain
12:08 PM 66.2 °F 64.4 °F 94% 29.90 in 1.8 mi South 13.8 mph - N/A Rain , Thunderstorm Heavy Thunderstorms and Rain
12:20 PM 66.2 °F 64.4 °F 94% 29.89 in 1.0 mi SSW 13.8 mph - 0.17 in Rain , Thunderstorm Heavy Thunderstorms and Rain
12:27 PM 66.2 °F 64.4 °F 94% 29.88 in 1.2 mi South 13.8 mph - 0.20 in Rain , Thunderstorm Heavy Thunderstorms and Rain
12:31 PM 66.2 °F 64.4 °F 94% 29.88 in 2.0 mi South 13.8 mph - 0.20 in Rain , Thunderstorm Light Thunderstorms and Rain
12:39 PM 66.2 °F 64.4 °F 94% 29.88 in 3.0 mi South 13.8 mph 24.2 mph 0.22 in Rain , Thunderstorm Rain
12:46 PM 66.2 °F 66.2 °F 100% 29.87 in 3.0 mi South 9.2 mph 18.4 mph N/A Rain Rain
12:52 PM 66.9 °F 64.9 °F 93% 29.86 in 4.0 mi South 13.8 mph 19.6 mph 0.23 in Rain Light Rain
1:03 PM 66.2 °F 66.2 °F 100% 29.86 in 4.0 mi South 12.7 mph - 0.00 in Rain , Thunderstorm Light Rain
1:09 PM 66.2 °F 66.2 °F 100% 29.85 in 4.0 mi South 13.8 mph - 0.01 in Rain , Thunderstorm Light Rain
1:23 PM 66.2 °F 66.2 °F 100% 29.84 in 4.0 mi SSE 15.0 mph - 0.02 in Rain Light Rain
1:45 PM 68.0 °F 66.2 °F 94% 29.82 in 5.0 mi SSE 15.0 mph 23.0 mph 0.02 in Rain Light Rain
1:52 PM 68.0 °F 66.0 °F 93% 29.80 in 6.0 mi SSE 13.8 mph 23.0 mph 0.02 in   Overcast
2:12 PM 68.0 °F 66.2 °F 94% 29.80 in 5.0 mi SSE 12.7 mph - N/A Thunderstorm Overcast
2:38 PM 68.0 °F 66.2 °F 94% 29.79 in 3.0 mi South 15.0 mph - 0.03 in Rain , Thunderstorm Light Rain
2:52 PM 69.8 °F 66.2 °F 88% 29.78 in 2.0 mi SSE 17.3 mph 24.2 mph N/A Rain , Thunderstorm Thunderstorms and Rain
2:57 PM 69.8 °F 66.2 °F 88% 29.78 in 1.8 mi SSE 16.1 mph - N/A Rain , Thunderstorm Heavy Thunderstorms and Rain
3:08 PM 68.0 °F 66.2 °F 94% 29.78 in 1.5 mi SSE 17.3 mph 23.0 mph 0.09 in Rain , Thunderstorm Heavy Thunderstorms and Rain
3:23 PM 69.8 °F 66.2 °F 88% 29.78 in 2.0 mi South 15.0 mph 25.3 mph N/A Rain , Thunderstorm Heavy Thunderstorms and Rain
3:34 PM 69.8 °F 66.2 °F 88% 29.77 in 5.0 mi South 16.1 mph 29.9 mph 0.18 in Rain , Thunderstorm Light Rain
3:47 PM 69.8 °F 66.2 °F 88% 29.76 in 8.0 mi South 15.0 mph 23.0 mph 0.18 in   Mostly Cloudy
3:52 PM 71.1 °F 66.9 °F 87% 29.74 in 8.0 mi South 13.8 mph 23.0 mph 0.18 in   Mostly Cloudy
4:16 PM 73.4 °F 68.0 °F 83% 29.74 in 9.0 mi South 17.3 mph 24.2 mph N/A   Scattered Clouds
4:41 PM 71.6 °F 68.0 °F 88% 29.75 in 10.0 mi South 17.3 mph 26.5 mph N/A   Overcast
4:52 PM 72.0 °F 66.9 °F 84% 29.72 in 10.0 mi South 17.3 mph 25.3 mph N/A   Overcast
5:52 PM 72.0 °F 68.0 °F 87% 29.72 in 10.0 mi South 20.7 mph 28.8 mph 0.00 in Rain Light Rain
6:17 PM 71.6 °F 66.2 °F 83% 29.69 in 10.0 mi SSE 23.0 mph 33.4 mph 0.00 in Rain , Thunderstorm Light Rain
6:45 PM 68.0 °F 62.6 °F 83% 29.64 in 7.0 mi SSE 21.9 mph 27.6 mph 0.03 in Rain Light Rain
6:52 PM 68.0 °F 62.6 °F 83% 29.65 in 10.0 mi SSE 20.7 mph 27.6 mph N/A Rain Light Rain
7:52 PM 64.0 °F 62.1 °F 93% 29.70 in 10.0 mi South 17.3 mph 32.2 mph 0.02 in Rain , Thunderstorm Light Thunderstorms and Rain
8:06 PM 64.4 °F 60.8 °F 88% 29.72 in 10.0 mi South 17.3 mph 27.6 mph 0.01 in Rain Light Rain
8:52 PM 64.4 °F 62.6 °F 94% 29.70 in 10.0 mi South 16.1 mph 25.3 mph N/A   Scattered Clouds
9:16 PM 64.4 °F 62.6 °F 94% 29.69 in 10.0 mi South 12.7 mph - N/A   Mostly Cloudy
9:52 PM 64.0 °F 62.1 °F 93% 29.67 in 10.0 mi North - - N/A   Clear
10:52 PM 64.0 °F 62.1 °F 93% 29.65 in 10.0 mi South 11.5 mph - N/A   Clear
11:52 PM 64.4 °F 62.6 °F 94% 29.64 in 10.0 mi South 12.7 mph - N/A   Clear